Precipitable_Water
0.67 0.67 0.76 0.70 0.42 0.43 0.35 0.43 0.63 0.62 0.69 0.84 0.84 0.71 0.64 0.66 0.54 0.40 1.00 1.10 1.26 1.35 1.58 1.76 1.76 1.53 1.20 0.95 0.95 0.97 0.91 0.83 0.80 0.77 0.76 0.77 0.80 0.79 0.98 0.94 0.98 0.91 0.90 1.01 1.09 1.14 1.21 1.17 1.23
0.60 0.62 0.58 0.56 0.32 0.23 0.25 0.51 0.51 0.65 0.75 0.88 0.87 0.84 0.76 0.65 0.89 0.89 0.98 1.22 1.32 1.35 1.50 1.71 1.73 1.43 1.14 0.96 0.98 0.93 0.88 0.83 0.78 0.80 0.80 0.80 0.79 0.85 1.01 1.14 1.07 0.99 0.88 1.00 1.04 1.08 1.14 1.12 1.08
0.60 0.69 0.37 0.34 0.30 0.18 0.21 0.48 0.56 0.72 0.85 0.84 0.83 0.95 0.85 0.74 0.92 0.97 1.11 1.27 1.34 1.34 1.50 1.63 1.62 1.40 1.10 0.99 0.97 0.92 0.88 0.79 0.80 0.76 0.78 0.84 0.91 0.94 1.17 1.17 1.10 1.01 0.98 0.92 1.05 1.11 1.26 1.22 1.10
0.54 0.54 0.46 0.26 0.17 0.25 0.29 0.45 0.60 0.65 0.77 0.89 0.91 0.83 0.97 1.03 0.98 1.10 1.21 1.30 1.28 1.32 1.48 1.55 1.51 1.38 1.13 1.00 0.97 0.92 0.84 0.91 0.87 0.77 0.84 0.94 0.90 1.06 1.25 1.22 1.09 1.00 1.02 0.93 1.04 1.11 1.21 1.24 1.12
0.60 0.45 0.24 0.27 0.19 0.27 0.34 0.50 0.61 0.61 0.68 0.78 0.87 0.81 0.87 1.04 1.15 1.27 1.24 1.29 1.22 1.30 1.45 1.47 1.44 1.37 1.21 1.06 0.97 0.95 0.93 0.97 0.98 0.90 0.81 0.92 0.99 1.09 1.31 1.19 1.08 1.03 1.06 1.04 1.01 1.09 1.21 1.25 1.15
0.43 0.41 0.19 0.17 0.20 0.23 0.35 0.51 0.58 0.60 0.64 0.77 0.81 0.88 0.93 1.15 1.16 1.26 1.30 1.26 1.29 1.29 1.43 1.44 1.44 1.33 1.26 1.19 0.99 0.99 0.94 0.97 0.96 0.95 0.89 0.92 0.90 1.03 1.25 1.21 1.08 1.04 1.05 1.10 1.10 1.06 1.25 1.25 1.20
0.42 0.35 0.21 0.21 0.18 0.16 0.21 0.46 0.54 0.50 0.59 0.68 0.89 0.83 1.00 1.09 1.24 1.32 1.32 1.28 1.31 1.35 1.39 1.44 1.44 1.33 1.28 1.30 1.08 0.91 0.88 0.86 0.86 0.99 0.92 0.81 0.81 0.95 1.29 1.22 1.07 1.03 1.05 1.03 1.04 1.07 1.17 1.24 1.23
0.52 0.44 0.28 0.25 0.23 0.19 0.29 0.34 0.53 0.54 0.55 0.85 0.95 0.74 0.85 1.08 1.30 1.33 1.36 1.29 1.27 1.32 1.38 1.41 1.43 1.37 1.32 1.32 1.15 0.94 0.92 0.85 0.88 0.98 0.90 0.83 0.82 1.02 1.22 1.15 1.07 1.04 1.05 1.01 1.00 1.04 1.13 1.15 1.16
0.60 0.37 0.28 0.29 0.29 0.36 0.42 0.36 0.53 0.66 0.67 0.80 0.87 0.90 1.01 1.22 1.39 1.32 1.29 1.24 1.22 1.27 1.33 1.39 1.38 1.34 1.38 1.35 1.30 1.02 0.89 0.85 0.82 0.89 0.83 0.79 0.85 1.01 1.09 1.09 1.05 1.02 1.02 1.03 1.00 1.01 1.06 1.09 1.06
0.44 0.32 0.34 0.43 0.44 0.39 0.49 0.49 0.53 0.57 0.64 0.71 0.77 0.93 1.03 1.11 1.28 1.27 1.21 1.15 1.16 1.20 1.27 1.32 1.33 1.31 1.31 1.26 1.39 1.13 0.90 0.87 0.79 0.82 0.77 0.81 0.83 0.98 1.04 1.08 1.04 0.99 0.99 0.98 0.98 0.98 0.98 1.00 1.00
0.45 0.33 0.39 0.47 0.53 0.54 0.47 0.55 0.62 0.54 0.53 0.66 0.67 0.75 0.88 0.97 1.13 1.19 1.28 1.23 1.18 1.24 1.30 1.31 1.29 1.28 1.25 1.20 1.46 1.23 0.99 0.86 0.77 0.82 0.80 0.86 0.81 0.91 0.97 1.02 1.01 0.95 0.92 0.90 0.91 0.92 0.93 0.94 0.94
0.30 0.41 0.43 0.43 0.50 0.54 0.49 0.62 0.64 0.64 0.63 0.73 0.78 0.83 0.85 0.87 0.99 1.12 1.26 1.27 1.28 1.24 1.24 1.32 1.27 1.27 1.24 1.37 1.51 1.34 1.04 0.92 0.79 0.84 0.84 0.81 0.76 0.84 0.90 0.95 0.96 0.91 0.87 0.84 0.86 0.87 0.88 0.88 0.89
0.27 0.36 0.41 0.43 0.44 0.47 0.54 0.52 0.63 0.68 0.76 0.78 0.84 0.82 0.82 0.86 0.96 1.21 1.29 1.38 1.39 1.33 1.27 1.28 1.24 1.23 1.26 1.41 1.45 1.38 1.14 1.01 0.89 0.84 0.84 0.82 0.74 0.76 0.87 0.93 0.94 0.90 0.86 0.81 0.83 0.84 0.84 0.83 0.84
0.28 0.29 0.30 0.37 0.41 0.43 0.45 0.47 0.58 0.68 0.80 0.73 0.79 0.84 0.85 0.85 0.86 1.03 1.24 1.30 1.39 1.42 1.44 1.41 1.33 1.28 1.24 1.30 1.45 1.38 1.28 1.16 1.09 0.93 0.85 0.84 0.78 0.76 0.82 0.85 0.87 0.87 0.87 0.85 0.84 0.83 0.80 0.77 0.80
0.20 0.15 0.22 0.28 0.30 0.36 0.49 0.38 0.45 0.66 0.73 0.74 0.72 0.77 0.88 0.90 0.91 0.85 0.99 1.19 1.36 1.46 1.50 1.51 1.45 1.33 1.25 1.21 1.39 1.43 1.37 1.26 1.20 1.10 0.95 0.87 0.85 0.84 0.86 0.83 0.85 0.88 0.89 0.89 0.87 0.82 0.78 0.74 0.76
0.22 0.20 0.16 0.28 0.28 0.31 0.38 0.29 0.44 0.49 0.54 0.59 0.64 0.66 0.63 0.66 0.77 0.87 0.94 1.01 1.24 1.44 1.47 1.50 1.54 1.44 1.25 1.24 1.38 1.34 1.32 1.22 1.20 1.16 1.04 0.97 0.94 0.95 0.92 0.89 0.87 0.89 0.88 0.87 0.85 0.80 0.73 0.73 0.74
0.24 0.17 0.20 0.23 0.33 0.31 0.28 0.23 0.32 0.40 0.40 0.48 0.52 0.58 0.58 0.54 0.55 0.64 0.77 0.85 1.05 1.23 1.43 1.50 1.55 1.53 1.48 1.44 1.40 1.36 1.31 1.20 1.15 1.15 1.08 1.01 0.99 0.98 0.94 0.92 0.92 0.92 0.89 0.88 0.84 0.80 0.77 0.76 0.75
0.18 0.20 0.25 0.25 0.31 0.31 0.26 0.24 0.28 0.32 0.34 0.36 0.44 0.51 0.56 0.57 0.50 0.53 0.63 0.71 0.89 1.11 1.30 1.44 1.60 1.57 1.58 1.59 1.54 1.38 1.29 1.28 1.28 1.15 1.08 1.06 1.01 1.03 1.01 0.97 0.95 0.95 0.92 0.89 0.85 0.82 0.82 0.80 0.79
0.27 0.24 0.22 0.28 0.35 0.32 0.28 0.27 0.30 0.32 0.31 0.31 0.37 0.40 0.45 0.47 0.53 0.54 0.59 0.72 0.81 0.94 1.08 1.23 1.36 1.49 1.56 1.56 1.52 1.42 1.25 1.23 1.26 1.27 1.21 1.15 1.09 1.01 1.05 1.04 0.99 0.98 0.91 0.87 0.87 0.84 0.80 0.79 0.83
0.27 0.24 0.23 0.28 0.32 0.31 0.31 0.27 0.30 0.33 0.34 0.35 0.35 0.39 0.44 0.50 0.50 0.55 0.56 0.61 0.80 0.89 0.93 1.04 1.17 1.33 1.41 1.49 1.56 1.54 1.50 1.47 1.32 1.27 1.28 1.26 1.21 1.13 1.04 1.01 0.95 0.98 0.93 0.88 0.85 0.82 0.79 0.80 0.84
0.26 0.24 0.25 0.25 0.29 0.30 0.29 0.26 0.28 0.32 0.35 0.37 0.38 0.41 0.43 0.49 0.54 0.55 0.59 0.61 0.62 0.69 0.87 1.06 1.15 1.24 1.32 1.41 1.50 1.52 1.58 1.55 1.46 1.38 1.29 1.32 1.32 1.27 1.21 1.07 0.98 0.94 0.92 0.89 0.84 0.83 0.81 0.76 0.81
0.25 0.34 0.31 0.26 0.23 0.17 0.28 0.16 0.26 0.31 0.30 0.34 0.36 0.37 0.39 0.45 0.51 0.53 0.57 0.64 0.63 0.62 0.72 0.88 1.11 1.24 1.29 1.34 1.35 1.37 1.35 1.35 1.47 1.45 1.40 1.33 1.35 1.34 1.33 1.27 1.13 0.97 0.92 0.87 0.92 0.90 0.85 0.84 0.76
0.30 0.36 0.33 0.31 0.25 0.23 0.22 0.19 0.22 0.30 0.28 0.32 0.35 0.37 0.39 0.42 0.44 0.49 0.54 0.57 0.65 0.65 0.63 0.70 0.87 1.08 1.23 1.26 1.26 1.29 1.29 1.35 1.42 1.46 1.40 1.41 1.41 1.39 1.40 1.37 1.28 1.15 1.04 0.94 0.91 0.94 0.93 0.86 0.80
0.41 0.31 0.29 0.29 0.24 0.14 0.19 0.19 0.18 0.23 0.28 0.33 0.37 0.38 0.39 0.40 0.42 0.46 0.50 0.54 0.55 0.61 0.64 0.64 0.68 0.86 1.17 1.26 1.28 1.21 1.21 1.25 1.27 1.32 1.37 1.39 1.43 1.41 1.38 1.34 1.30 1.25 1.16 1.07 1.01 0.94 0.91 0.90 0.90
0.37 0.28 0.16 0.15 0.14 0.14 0.22 0.18 0.22 0.33 0.36 0.35 0.34 0.35 0.38 0.40 0.41 0.42 0.42 0.44 0.48 0.49 0.52 0.54 0.59 0.66 0.88 1.13 1.22 1.25 1.24 1.25 1.25 1.28 1.31 1.36 1.37 1.35 1.43 1.45 1.36 1.32 1.25 1.16 1.11 1.05 0.96 0.90 0.86
0.35 0.33 0.22 0.15 0.15 0.17 0.23 0.17 0.24 0.37 0.40 0.41 0.40 0.40 0.40 0.40 0.41 0.40 0.42 0.43 0.44 0.45 0.48 0.50 0.54 0.58 0.68 0.82 1.05 1.21 1.25 1.23 1.20 1.24 1.27 1.30 1.36 1.42 1.44 1.41 1.44 1.43 1.43 1.37 1.25 1.13 1.07 1.03 0.98
0.33 0.29 0.39 0.28 0.26 0.20 0.21 0.26 0.34 0.38 0.37 0.38 0.38 0.40 0.40 0.42 0.42 0.42 0.43 0.42 0.42 0.44 0.46 0.49 0.51 0.53 0.61 0.67 0.78 1.04 1.16 1.20 1.17 1.16 1.19 1.24 1.32 1.44 1.45 1.43 1.38 1.43 1.42 1.44 1.38 1.24 1.12 1.10 1.05
0.36 0.40 0.27 0.29 0.19 0.16 0.20 0.21 0.23 0.30 0.33 0.37 0.37 0.39 0.41 0.43 0.44 0.44 0.45 0.45 0.45 0.46 0.47 0.49 0.51 0.52 0.54 0.59 0.66 0.75 0.95 1.08 1.14 1.17 1.16 1.18 1.23 1.32 1.37 1.35 1.40 1.45 1.47 1.44 1.41 1.33 1.27 1.18 1.10
0.32 0.29 0.32 0.33 0.29 0.21 0.17 0.20 0.36 0.34 0.37 0.37 0.39 0.41 0.42 0.43 0.45 0.47 0.47 0.48 0.49 0.51 0.51 0.50 0.51 0.51 0.53 0.57 0.59 0.67 0.74 0.90 1.03 1.09 1.17 1.18 1.26 1.30 1.28 1.33 1.35 1.39 1.42 1.42 1.41 1.39 1.38 1.33 1.23
0.38 0.32 0.31 0.23 0.23 0.28 0.26 0.23 0.40 0.40 0.40 0.42 0.41 0.43 0.45 0.46 0.48 0.50 0.49 0.49 0.49 0.52 0.54 0.53 0.55 0.56 0.56 0.59 0.63 0.71 0.78 0.90 0.97 1.04 1.12 1.20 1.16 1.23 1.29 1.32 1.31 1.32 1.38 1.42 1.39 1.35 1.37 1.35 1.29
Wind_Speed
17 17 15 13 11 9 13 12 12 12 10 10 10 10 10 7 7 7 9 12 15 17 20 19 19 18 17 16 16 16 14 14 14 14 13 12 11 10 10 8 8 7 7 8 10 10 11 11 11
17 15 15 13 12 11 14 15 13 11 12 11 10 10 8 8 7 8 11 13 15 17 20 20 19 18 17 17 17 16 14 14 14 13 13 12 11 10 9 8 7 7 7 9 10 10 11 11 11
16 15 14 15 15 14 13 16 14 11 11 12 12 11 10 9 8 11 11 15 16 17 20 20 20 19 18 18 17 16 15 15 14 13 13 12 11 11 9 9 8 8 8 10 11 11 10 10 10
16 15 15 16 17 15 16 17 14 13 12 12 12 11 11 11 11 11 14 16 17 18 21 21 20 20 19 18 17 16 16 15 14 13 13 11 11 11 10 9 8 8 9 10 10 10 10 10 9
16 16 17 18 18 15 16 19 14 14 15 13 14 13 11 11 11 12 14 16 18 19 21 21 20 21 20 19 18 17 16 15 15 14 13 11 12 11 11 9 8 8 9 9 9 9 9 9 8
16 17 16 19 18 16 18 19 18 17 16 15 13 14 13 13 13 14 15 17 19 20 22 21 21 21 21 20 18 17 16 15 15 15 13 12 12 11 11 9 9 8 8 8 8 8 9 9 8
17 16 19 17 17 18 17 20 20 19 18 16 15 14 14 13 14 15 15 17 19 21 23 22 21 21 21 20 18 18 17 16 16 15 14 13 12 12 12 10 9 8 8 7 7 8 8 7 7
17 17 18 18 16 15 16 18 18 19 19 17 15 15 15 15 15 16 17 17 19 21 23 23 22 22 21 21 19 19 18 16 16 15 14 13 12 12 12 10 9 8 8 7 7 7 7 7 6
19 18 19 18 17 16 16 16 17 17 17 16 16 15 15 17 17 18 18 18 19 22 23 24 23 23 22 22 20 19 19 17 17 16 15 14 14 13 12 10 9 8 8 7 6 6 6 6 5
19 20 20 18 17 18 17 17 18 16 16 15 15 15 16 18 18 19 19 19 20 22 23 24 24 24 23 23 21 20 19 18 18 17 16 15 15 14 13 11 10 9 8 7 6 6 6 6 6
19 21 21 19 18 18 19 18 18 19 18 17 17 17 18 20 21 19 21 20 20 22 23 24 24 25 24 23 23 21 20 19 18 18 17 17 16 15 14 13 11 10 9 8 6 6 6 6 7
18 18 19 20 20 19 19 20 18 18 19 19 18 17 17 19 22 22 20 21 20 21 23 24 25 25 25 25 24 23 21 20 19 19 19 18 17 17 16 14 13 12 11 10 8 8 8 8 8
16 17 18 20 21 20 21 20 20 18 18 17 17 18 18 18 20 22 21 20 22 21 22 24 25 26 27 27 25 24 23 22 21 20 20 19 18 18 18 16 15 15 14 12 11 10 10 10 10
14 16 19 19 21 21 21 22 20 19 18 17 18 19 19 19 19 21 23 23 23 23 23 25 26 27 28 28 28 26 25 24 22 22 21 20 20 19 19 18 18 17 17 15 14 13 13 13 13
10 11 12 13 18 20 20 22 23 22 20 18 21 21 22 22 21 22 24 25 26 26 26 25 27 28 29 29 29 29 28 26 25 24 23 22 21 20 20 19 19 19 19 18 17 16 15 15 15
7 6 7 7 9 14 17 19 20 20 21 22 22 25 24 24 24 25 25 25 27 28 28 29 28 28 30 30 30 30 30 29 28 26 25 24 23 22 21 21 20 20 20 20 19 19 18 17 17
5 5 5 7 6 10 11 17 18 20 22 22 22 22 24 24 25 27 28 28 28 28 29 29 30 29 30 30 31 31 31 31 30 29 28 27 26 25 24 23 22 22 21 21 21 20 20 19 18
6 5 6 7 8 9 10 13 16 18 22 24 24 23 22 25 23 25 28 29 29 29 29 30 31 33 32 31 31 31 31 32 31 31 30 29 28 28 27 26 25 24 24 23 23 22 21 21 20
5 5 7 8 7 8 9 11 12 13 14 18 20 21 21 22 25 22 24 29 31 30 30 29 31 32 32 34 32 31 31 32 32 32 32 31 31 30 29 28 27 27 26 26 25 24 24 23 22
6 6 7 7 8 6 6 7 6 3 4 7 10 14 17 17 19 21 21 22 29 32 33 32 32 32 33 34 33 33 32 32 32 33 33 33 32 32 31 31 30 29 28 28 27 26 25 25 25
6 6 7 8 10 6 6 5 4 4 2 2 5 10 12 14 17 19 20 22 23 25 30 33 34 34 34 33 33 33 34 32 32 32 33 33 33 33 33 32 32 32 31 30 29 29 28 27 28
7 8 9 9 6 6 6 8 5 6 4 3 4 7 11 14 16 18 21 22 24 25 27 29 32 34 35 35 34 34 34 33 33 34 33 33 36 34 34 34 33 33 32 31 31 30 30 29 29
9 11 9 7 7 5 5 6 8 6 8 9 8 9 12 14 17 18 21 23 26 27 28 29 31 33 35 36 36 35 35 34 34 34 35 35 34 36 36 35 36 35 35 34 33 33 32 32 31
12 9 5 3 3 3 6 6 6 5 7 11 12 13 15 17 19 21 22 24 26 29 31 31 31 33 34 36 37 38 37 36 35 35 35 35 33 35 35 35 35 36 36 36 35 35 35 34 34
11 9 6 5 2 5 3 4 6 6 6 9 13 16 17 19 21 23 25 25 27 27 30 32 33 35 35 36 38 38 38 37 36 36 35 35 35 32 34 34 33 33 35 37 37 36 36 36 35
10 8 4 1 3 4 4 5 6 5 6 10 13 17 19 21 22 25 27 29 30 30 31 32 34 36 36 38 38 39 38 38 37 36 36 36 38 37 31 32 35 35 34 36 38 38 38 37 38
8 9 7 3 3 3 5 3 6 6 8 12 16 18 17 18 20 22 25 28 31 33 34 35 35 36 37 38 40 41 40 39 38 37 36 37 36 37 36 35 36 37 38 36 37 38 38 38 39
7 7 7 7 5 4 4 4 5 9 13 14 15 15 14 15 16 17 20 23 27 31 35 36 38 38 38 39 39 40 42 42 40 39 37 36 36 36 37 36 36 38 36 36 36 37 37 38 39
7 7 7 5 3 2 4 4 5 8 11 13 14 14 15 16 17 18 18 19 21 23 25 30 36 39 40 39 39 38 39 41 39 38 38 36 36 35 36 36 35 32 35 35 35 36 38 39 39
6 5 6 4 6 5 4 5 5 7 10 11 12 13 15 16 17 18 18 19 15 15 17 21 25 30 37 40 38 36 34 35 36 36 35 35 36 36 36 35 34 35 32 35 34 36 38 39 41
Wind_Direction
260 257 248 245 244 242 237 236 232 248 243 235 230 222 219 233 230 226 192 185 179 179 179 177 175 174 170 169 166 163 160 160 160 160 158 155 152 149 143 135 127 126 130 131 132 129 127 128 126
257 251 242 238 234 236 240 234 234 238 231 220 227 229 232 236 230 210 189 189 183 180 180 180 178 177 175 172 169 167 165 165 163 162 161 159 155 151 146 137 129 125 129 138 137 133 132 131 130
251 244 238 234 236 235 234 228 228 230 230 231 230 230 234 231 231 198 204 188 185 184 182 181 180 178 176 175 174 171 170 168 166 166 165 161 160 156 150 140 130 124 125 141 140 137 136 134 132
246 242 242 238 239 243 229 225 228 237 237 232 228 233 236 234 213 211 193 191 188 186 184 183 183 182 179 178 177 175 173 173 171 168 167 167 163 161 155 147 137 127 124 138 141 140 142 139 136
243 242 240 245 245 240 233 232 232 238 242 239 230 231 235 222 214 202 193 193 190 188 186 186 186 184 183 181 180 179 178 178 177 173 171 169 167 164 160 152 144 135 129 132 143 146 148 145 142
247 241 243 244 245 242 237 234 238 236 238 234 232 227 227 221 211 204 199 195 192 191 188 188 187 186 186 185 184 184 184 181 180 179 176 173 172 172 167 160 152 145 140 136 136 145 152 153 150
243 244 244 246 245 241 236 233 233 236 234 234 222 222 227 219 210 203 199 195 195 193 191 191 190 189 188 188 188 188 187 187 186 185 183 181 180 178 174 168 162 157 153 148 146 148 153 159 160
245 244 246 244 239 239 236 237 234 231 235 227 227 224 224 217 207 201 198 197 198 196 195 194 194 193 193 193 192 190 190 190 190 189 189 188 185 181 179 178 172 169 165 161 160 161 165 170 173
245 246 244 245 237 234 240 235 236 235 225 228 229 226 223 205 203 200 201 201 200 199 199 199 199 198 198 197 196 195 195 195 195 196 196 194 192 189 188 185 182 181 179 178 177 178 182 186 191
244 243 242 242 243 238 241 237 237 232 226 230 229 231 214 208 204 205 206 205 203 202 202 203 203 203 202 201 200 198 199 200 201 201 202 199 198 197 196 195 194 192 191 192 194 198 200 206 214
247 244 243 245 245 243 239 239 237 232 231 230 235 225 220 213 211 213 211 209 206 205 206 206 206 206 205 205 204 203 203 204 205 205 206 205 205 204 204 206 207 205 205 208 211 213 219 222 227
254 247 245 244 245 241 238 237 240 234 232 235 231 224 221 219 216 215 211 212 211 209 209 209 209 209 208 208 208 208 209 208 208 209 210 211 213 213 214 216 217 218 219 221 227 231 236 240 243
255 255 250 247 244 242 239 236 235 235 234 233 225 222 223 221 221 218 215 214 213 214 214 213 213 213 212 211 212 212 213 212 213 213 215 216 219 220 221 223 226 228 229 232 236 240 246 249 250
260 257 255 246 242 241 238 234 233 233 235 234 226 225 226 224 222 221 221 221 222 220 219 218 217 216 216 215 216 217 217 218 218 220 220 221 223 224 226 229 232 234 235 239 242 245 250 255 253
265 264 259 251 243 238 235 238 232 236 239 238 233 231 230 230 229 228 226 226 226 226 225 223 221 220 219 219 219 221 222 223 224 225 225 225 227 228 230 234 237 238 238 241 246 250 253 256 255
277 253 251 266 246 244 234 236 237 240 243 242 238 234 236 237 235 235 234 233 231 229 228 226 223 222 221 222 223 224 225 226 227 228 228 228 230 231 233 237 240 239 240 243 248 251 254 256 257
305 258 261 262 255 254 238 240 243 245 245 243 242 240 237 240 241 239 238 237 234 233 231 228 225 225 224 223 225 227 227 228 229 230 231 232 233 235 236 239 241 241 242 246 249 251 253 256 257
296 281 268 263 278 268 257 250 254 252 245 242 243 243 244 242 245 244 239 238 235 234 234 232 229 229 227 227 228 229 230 230 232 231 233 234 236 237 239 242 243 243 245 249 250 252 254 256 257
324 291 273 263 272 278 264 263 259 263 247 244 242 242 243 244 244 245 242 237 235 234 234 235 232 231 230 230 229 230 231 231 233 233 234 236 237 239 241 243 245 245 247 249 251 253 254 256 257
323 313 296 265 286 274 282 254 245 243 236 234 237 244 246 248 248 245 243 242 237 236 235 236 236 236 234 234 233 234 233 234 235 236 237 238 239 241 242 244 245 246 248 250 251 252 255 257 257
326 314 301 279 287 257 263 221 223 220 222 237 246 247 248 251 253 250 247 245 242 241 240 238 237 237 236 236 236 236 235 236 236 238 240 240 241 241 243 244 246 247 249 250 252 253 254 257 258
332 310 292 286 281 249 248 225 235 250 249 282 283 272 262 261 259 254 251 250 246 246 245 242 240 238 236 236 236 236 236 238 239 241 241 242 241 243 244 245 247 248 249 251 252 254 255 257 259
325 315 309 275 250 240 246 223 238 252 261 293 294 287 275 268 264 262 258 254 251 249 248 246 245 241 239 237 237 238 239 241 242 242 242 246 244 246 246 246 247 249 250 252 253 254 255 258 260
341 346 352 347 227 228 243 217 243 253 271 288 289 290 288 281 273 267 264 260 257 253 250 249 247 244 241 239 238 238 240 241 242 242 244 247 248 245 246 247 251 249 250 252 254 255 256 258 260
4 16 6 11 8 217 228 226 236 262 272 292 299 298 293 288 281 274 269 265 261 258 255 252 249 246 244 242 240 240 241 242 243 244 245 244 246 252 246 248 248 251 252 254 255 255 257 259 260
5 5 6 320 340 282 260 239 227 261 282 305 305 306 300 295 287 279 274 267 263 261 258 256 252 249 247 245 243 242 242 242 244 245 246 248 247 249 252 249 250 254 257 257 255 256 257 259 261
2 19 2 3 320 285 261 249 255 286 306 318 320 317 312 307 301 291 282 272 267 262 260 257 254 251 249 248 246 243 242 243 244 246 248 248 249 249 251 254 256 257 256 258 258 256 258 260 262
15 359 7 7 9 326 284 275 277 316 319 324 330 329 326 324 321 311 298 286 275 267 262 259 255 253 250 249 247 245 243 243 244 246 247 249 250 250 252 255 257 258 255 258 256 257 259 261 262
347 357 356 347 3 359 315 284 307 315 320 325 327 326 327 327 328 325 319 307 288 277 270 265 259 255 251 249 247 245 243 242 244 246 247 249 250 251 253 255 258 261 256 257 259 259 262 262 263
309 328 350 1 328 316 304 290 325 323 324 327 333 335 336 333 333 332 326 326 312 301 285 276 269 262 253 247 244 240 241 241 240 244 248 250 250 252 253 255 257 257 265 258 261 264 266 263 267